Year,Month,Day,Hour,Minute,Value (Times are PST for temperature in C)
2010,08,15,00,00,21.90
2010,08,15,00,01,21.90
2010,08,15,00,02,21.90
2010,08,15,00,03,21.90
2010,08,15,00,04,21.90
2010,08,15,00,05,21.80
2010,08,15,00,06,21.80
2010,08,15,00,07,21.80
2010,08,15,00,08,21.80
2010,08,15,00,09,21.80
2010,08,15,00,10,21.80
2010,08,15,00,11,21.80
2010,08,15,00,12,21.80
2010,08,15,00,13,21.80
2010,08,15,00,14,21.90
2010,08,15,00,15,21.90
2010,08,15,00,16,21.90
2010,08,15,00,17,21.90
2010,08,15,00,18,21.90
2010,08,15,00,19,21.90
2010,08,15,00,20,21.90
2010,08,15,00,21,21.90
2010,08,15,00,22,21.90
2010,08,15,00,23,21.90
2010,08,15,00,24,21.90
2010,08,15,00,25,21.80
2010,08,15,00,26,21.80
2010,08,15,00,27,21.80
2010,08,15,00,28,21.80
2010,08,15,00,29,21.80
2010,08,15,00,30,21.70
2010,08,15,00,31,21.70
2010,08,15,00,32,21.70
2010,08,15,00,33,21.70
2010,08,15,00,34,21.60
2010,08,15,00,35,21.60
2010,08,15,00,36,21.60
2010,08,15,00,37,21.50
2010,08,15,00,38,21.50
2010,08,15,00,39,21.50
2010,08,15,00,40,21.50
2010,08,15,00,41,21.50
2010,08,15,00,42,21.40
2010,08,15,00,43,21.40
2010,08,15,00,44,21.40
2010,08,15,00,45,21.40
2010,08,15,00,46,21.40
2010,08,15,00,47,21.40
2010,08,15,00,48,21.40
2010,08,15,00,49,21.40
2010,08,15,00,50,21.40
2010,08,15,00,51,21.40
2010,08,15,00,52,21.40
2010,08,15,00,53,21.40
2010,08,15,00,54,21.30
2010,08,15,00,55,21.40
2010,08,15,00,56,21.40
2010,08,15,00,57,21.40
2010,08,15,00,58,21.40
2010,08,15,00,59,21.40
2010,08,15,01,00,21.40
2010,08,15,01,01,21.40
2010,08,15,01,02,21.40
2010,08,15,01,03,21.30
2010,08,15,01,04,21.30
2010,08,15,01,05,21.30
2010,08,15,01,06,21.30
2010,08,15,01,07,21.20
2010,08,15,01,08,21.20
2010,08,15,01,09,21.10
2010,08,15,01,10,21.10
2010,08,15,01,11,21.00
2010,08,15,01,12,21.00
2010,08,15,01,13,20.90
2010,08,15,01,14,20.90
2010,08,15,01,15,20.80
2010,08,15,01,16,20.80
2010,08,15,01,17,20.80
2010,08,15,01,18,20.80
2010,08,15,01,19,20.80
2010,08,15,01,20,20.80
2010,08,15,01,21,20.80
2010,08,15,01,22,20.80
2010,08,15,01,23,20.80
2010,08,15,01,24,20.80
2010,08,15,01,25,20.80
2010,08,15,01,26,20.80
2010,08,15,01,27,20.80
2010,08,15,01,28,20.90
2010,08,15,01,29,20.80
2010,08,15,01,30,20.80
2010,08,15,01,31,20.80
2010,08,15,01,32,20.80
2010,08,15,01,33,20.80
2010,08,15,01,34,20.80
2010,08,15,01,35,20.80
2010,08,15,01,36,20.80
2010,08,15,01,37,20.80
2010,08,15,01,38,20.80
2010,08,15,01,39,20.80
2010,08,15,01,40,20.80
2010,08,15,01,41,20.80
2010,08,15,01,42,20.80
2010,08,15,01,43,20.80
2010,08,15,01,44,20.80
2010,08,15,01,45,20.80
2010,08,15,01,46,20.80
2010,08,15,01,47,20.80
2010,08,15,01,48,20.80
2010,08,15,01,49,20.80
2010,08,15,01,50,20.70
2010,08,15,01,51,20.70
2010,08,15,01,52,20.70
2010,08,15,01,53,20.70
2010,08,15,01,54,20.60
2010,08,15,01,55,20.60
2010,08,15,01,56,20.60
2010,08,15,01,57,20.50
2010,08,15,01,58,20.50
2010,08,15,01,59,20.40
2010,08,15,02,00,20.40
2010,08,15,02,01,20.30
2010,08,15,02,02,20.30
2010,08,15,02,03,20.30
2010,08,15,02,04,20.20
2010,08,15,02,05,20.20
2010,08,15,02,06,20.20
2010,08,15,02,07,20.20
2010,08,15,02,08,20.20
2010,08,15,02,09,20.20
2010,08,15,02,10,20.20
2010,08,15,02,11,20.20
2010,08,15,02,12,20.20
2010,08,15,02,13,20.10
2010,08,15,02,14,20.10
2010,08,15,02,15,20.10
2010,08,15,02,16,20.10
2010,08,15,02,17,20.10
2010,08,15,02,18,20.10
2010,08,15,02,19,20.00
2010,08,15,02,20,20.00
2010,08,15,02,21,20.00
2010,08,15,02,22,20.00
2010,08,15,02,23,20.00
2010,08,15,02,24,19.90
2010,08,15,02,25,19.90
2010,08,15,02,26,19.90
2010,08,15,02,27,19.90
2010,08,15,02,28,19.80
2010,08,15,02,29,19.80
2010,08,15,02,30,19.80
2010,08,15,02,31,19.80
2010,08,15,02,32,19.70
2010,08,15,02,33,19.70
2010,08,15,02,34,19.70
2010,08,15,02,35,19.60
2010,08,15,02,36,19.60
2010,08,15,02,37,19.60
2010,08,15,02,38,19.50
2010,08,15,02,39,19.50
2010,08,15,02,40,19.50
2010,08,15,02,41,19.40
2010,08,15,02,42,19.40
2010,08,15,02,43,19.40
2010,08,15,02,44,19.40
2010,08,15,02,45,19.40
2010,08,15,02,46,19.40
2010,08,15,02,47,19.40
2010,08,15,02,48,19.30
2010,08,15,02,49,19.40
2010,08,15,02,50,19.40
2010,08,15,02,51,19.40
2010,08,15,02,52,19.40
2010,08,15,02,53,19.40
2010,08,15,02,54,19.40
2010,08,15,02,55,19.50
2010,08,15,02,56,19.50
2010,08,15,02,57,19.50
2010,08,15,02,58,19.60
2010,08,15,02,59,19.60
2010,08,15,03,00,19.60
2010,08,15,03,01,19.60
2010,08,15,03,02,19.60
2010,08,15,03,03,19.70
2010,08,15,03,04,19.70
2010,08,15,03,05,19.70
2010,08,15,03,06,19.70
2010,08,15,03,07,19.70
2010,08,15,03,08,19.70
2010,08,15,03,09,19.70
2010,08,15,03,10,19.80
2010,08,15,03,11,19.80
2010,08,15,03,12,19.80
2010,08,15,03,13,19.80
2010,08,15,03,14,19.80
2010,08,15,03,15,19.90
2010,08,15,03,16,19.90
2010,08,15,03,17,19.90
2010,08,15,03,18,19.90
2010,08,15,03,19,20.00
2010,08,15,03,20,20.00
2010,08,15,03,21,20.00
2010,08,15,03,22,20.00
2010,08,15,03,23,20.00
2010,08,15,03,24,20.00
2010,08,15,03,25,20.00
2010,08,15,03,26,19.90
2010,08,15,03,27,19.90
2010,08,15,03,28,19.90
2010,08,15,03,29,19.90
2010,08,15,03,30,19.90
2010,08,15,03,31,19.80
2010,08,15,03,32,19.80
2010,08,15,03,33,19.80
2010,08,15,03,34,19.80
2010,08,15,03,35,19.80
2010,08,15,03,36,19.70
2010,08,15,03,37,19.70
2010,08,15,03,38,19.70
2010,08,15,03,39,19.70
2010,08,15,03,40,19.70
2010,08,15,03,41,19.60
2010,08,15,03,42,19.60
2010,08,15,03,43,19.60
2010,08,15,03,44,19.60
2010,08,15,03,45,19.50
2010,08,15,03,46,19.50
2010,08,15,03,47,19.40
2010,08,15,03,48,19.40
2010,08,15,03,49,19.30
2010,08,15,03,50,19.30
2010,08,15,03,51,19.30
2010,08,15,03,52,19.30
2010,08,15,03,53,19.20
2010,08,15,03,54,19.20
2010,08,15,03,55,19.20
2010,08,15,03,56,19.20
2010,08,15,03,57,19.10
2010,08,15,03,58,19.10
2010,08,15,03,59,19.10
2010,08,15,04,00,19.10
2010,08,15,04,01,19.10
2010,08,15,04,02,19.00
2010,08,15,04,03,19.00
2010,08,15,04,04,19.00
2010,08,15,04,05,18.90
2010,08,15,04,06,18.90
2010,08,15,04,07,18.90
2010,08,15,04,08,19.00
2010,08,15,04,09,19.00
2010,08,15,04,10,19.00
2010,08,15,04,11,19.00
2010,08,15,04,12,19.00
2010,08,15,04,13,19.10
2010,08,15,04,14,19.10
2010,08,15,04,15,19.10
2010,08,15,04,16,19.20
2010,08,15,04,17,19.20
2010,08,15,04,18,19.20
2010,08,15,04,19,19.30
2010,08,15,04,20,19.30
2010,08,15,04,21,19.30
2010,08,15,04,22,19.30
2010,08,15,04,23,19.30
2010,08,15,04,24,19.30
2010,08,15,04,25,19.40
2010,08,15,04,26,19.50
2010,08,15,04,27,19.60
2010,08,15,04,28,19.70
2010,08,15,04,29,19.80
2010,08,15,04,30,19.80
2010,08,15,04,31,19.90
2010,08,15,04,32,20.00
2010,08,15,04,33,20.10
2010,08,15,04,34,20.20
2010,08,15,04,35,20.20
2010,08,15,04,36,20.30
2010,08,15,04,37,20.40
2010,08,15,04,38,20.40
2010,08,15,04,39,20.50
2010,08,15,04,40,20.50
2010,08,15,04,41,20.60
2010,08,15,04,42,20.60
2010,08,15,04,43,20.60
2010,08,15,04,44,20.60
2010,08,15,04,45,20.50
2010,08,15,04,46,20.50
2010,08,15,04,47,20.50
2010,08,15,04,48,20.50
2010,08,15,04,49,20.60
2010,08,15,04,50,20.70
2010,08,15,04,51,20.80
2010,08,15,04,52,20.90
2010,08,15,04,53,21.00
2010,08,15,04,54,21.00
2010,08,15,04,55,21.10
2010,08,15,04,56,21.20
2010,08,15,04,57,21.20
2010,08,15,04,58,21.30
2010,08,15,04,59,21.30
2010,08,15,05,00,21.30
2010,08,15,05,01,21.30
2010,08,15,05,02,21.30
2010,08,15,05,03,21.30
2010,08,15,05,04,21.30
2010,08,15,05,05,21.30
2010,08,15,05,06,21.30
2010,08,15,05,07,21.30
2010,08,15,05,08,21.30
2010,08,15,05,09,21.30
2010,08,15,05,10,21.30
2010,08,15,05,11,21.40
2010,08,15,05,12,21.40
2010,08,15,05,13,21.40
2010,08,15,05,14,21.50
2010,08,15,05,15,21.50
2010,08,15,05,16,21.60
2010,08,15,05,17,21.70
2010,08,15,05,18,21.70
2010,08,15,05,19,21.80
2010,08,15,05,20,21.80
2010,08,15,05,21,21.80
2010,08,15,05,22,21.80
2010,08,15,05,23,21.80
2010,08,15,05,24,21.70
2010,08,15,05,25,21.70
2010,08,15,05,26,21.70
2010,08,15,05,27,21.70
2010,08,15,05,28,21.60
2010,08,15,05,29,21.60
2010,08,15,05,30,21.60
2010,08,15,05,31,21.60
2010,08,15,05,32,21.60
2010,08,15,05,33,21.60
2010,08,15,05,34,21.60
2010,08,15,05,35,21.60
2010,08,15,05,36,21.60
2010,08,15,05,37,21.70
2010,08,15,05,38,21.70
2010,08,15,05,39,21.70
2010,08,15,05,40,21.70
2010,08,15,05,41,21.70
2010,08,15,05,42,21.60
2010,08,15,05,43,21.50
2010,08,15,05,44,21.50
2010,08,15,05,45,21.40
2010,08,15,05,46,21.30
2010,08,15,05,47,21.20
2010,08,15,05,48,21.00
2010,08,15,05,49,20.90
2010,08,15,05,50,20.80
2010,08,15,05,51,20.80
2010,08,15,05,52,20.70
2010,08,15,05,53,20.70
2010,08,15,05,54,20.70
2010,08,15,05,55,20.70
2010,08,15,05,56,20.70
2010,08,15,05,57,20.70
2010,08,15,05,58,20.70
2010,08,15,05,59,20.70
2010,08,15,06,00,20.70
2010,08,15,06,01,20.70
2010,08,15,06,02,20.70
2010,08,15,06,03,20.60
2010,08,15,06,04,20.60
2010,08,15,06,05,20.50
2010,08,15,06,06,20.50
2010,08,15,06,07,20.40
2010,08,15,06,08,20.40
2010,08,15,06,09,20.40
2010,08,15,06,10,20.40
2010,08,15,06,11,20.40
2010,08,15,06,12,20.40
2010,08,15,06,13,20.40
2010,08,15,06,14,20.40
2010,08,15,06,15,20.50
2010,08,15,06,16,20.60
2010,08,15,06,17,20.70
2010,08,15,06,18,20.80
2010,08,15,06,19,20.90
2010,08,15,06,20,21.00
2010,08,15,06,21,21.10
2010,08,15,06,22,21.20
2010,08,15,06,23,21.30
2010,08,15,06,24,21.40
2010,08,15,06,25,21.40
2010,08,15,06,26,21.50
2010,08,15,06,27,21.60
2010,08,15,06,28,21.60
2010,08,15,06,29,21.70
2010,08,15,06,30,21.70
2010,08,15,06,31,21.70
2010,08,15,06,32,21.80
2010,08,15,06,33,21.70
2010,08,15,06,34,21.70
2010,08,15,06,35,21.70
2010,08,15,06,36,21.60
2010,08,15,06,37,21.50
2010,08,15,06,38,21.40
2010,08,15,06,39,21.30
2010,08,15,06,40,21.20
2010,08,15,06,41,21.10
2010,08,15,06,42,21.00
2010,08,15,06,43,20.90
2010,08,15,06,44,20.80
2010,08,15,06,45,20.70
2010,08,15,06,46,20.60
2010,08,15,06,47,20.50
2010,08,15,06,48,20.50
2010,08,15,06,49,20.40
2010,08,15,06,50,20.30
2010,08,15,06,51,20.30
2010,08,15,06,52,20.20
2010,08,15,06,53,20.10
2010,08,15,06,54,20.00
2010,08,15,06,55,20.00
2010,08,15,06,56,19.90
2010,08,15,06,57,19.80
2010,08,15,06,58,19.80
2010,08,15,06,59,19.70
2010,08,15,07,00,19.70
2010,08,15,07,01,19.70
2010,08,15,07,02,19.60
2010,08,15,07,03,19.60
2010,08,15,07,04,19.60
2010,08,15,07,05,19.50
2010,08,15,07,06,19.50
2010,08,15,07,07,19.40
2010,08,15,07,08,19.40
2010,08,15,07,09,19.30
2010,08,15,07,10,19.30
2010,08,15,07,11,19.30
2010,08,15,07,12,19.20
2010,08,15,07,13,19.20
2010,08,15,07,14,19.20
2010,08,15,07,15,19.20
2010,08,15,07,16,19.10
2010,08,15,07,17,19.10
2010,08,15,07,18,19.10
2010,08,15,07,19,19.10
2010,08,15,07,20,19.10
2010,08,15,07,21,19.10
2010,08,15,07,22,19.10
2010,08,15,07,23,19.10
2010,08,15,07,24,19.10
2010,08,15,07,25,19.10
2010,08,15,07,26,19.10
2010,08,15,07,27,19.10
2010,08,15,07,28,19.20
2010,08,15,07,29,19.20
2010,08,15,07,30,19.20
2010,08,15,07,31,19.20
2010,08,15,07,32,19.20
2010,08,15,07,33,19.30
2010,08,15,07,34,19.40
2010,08,15,07,35,19.40
2010,08,15,07,36,19.50
2010,08,15,07,37,19.60
2010,08,15,07,38,19.70
2010,08,15,07,39,19.70
2010,08,15,07,40,19.80
2010,08,15,07,41,19.80
2010,08,15,07,42,19.90
2010,08,15,07,43,19.90
2010,08,15,07,44,20.00
2010,08,15,07,45,20.10
2010,08,15,07,46,20.10
2010,08,15,07,47,20.20
2010,08,15,07,48,20.30
2010,08,15,07,49,20.50
2010,08,15,07,50,20.60
2010,08,15,07,51,20.70
2010,08,15,07,52,20.80
2010,08,15,07,53,20.90
2010,08,15,07,54,21.00
2010,08,15,07,55,21.10
2010,08,15,07,56,21.20
2010,08,15,07,57,21.20
2010,08,15,07,58,21.30
2010,08,15,07,59,21.30
2010,08,15,08,00,21.40
2010,08,15,08,01,21.40
2010,08,15,08,02,21.50
2010,08,15,08,03,21.50
2010,08,15,08,04,21.60
2010,08,15,08,05,21.70
2010,08,15,08,06,21.70
2010,08,15,08,07,21.80
2010,08,15,08,08,21.80
2010,08,15,08,09,21.80
2010,08,15,08,10,21.90
2010,08,15,08,11,21.90
2010,08,15,08,12,21.90
2010,08,15,08,13,22.00
2010,08,15,08,14,22.00
2010,08,15,08,15,22.00
2010,08,15,08,16,22.10
2010,08,15,08,17,22.10
2010,08,15,08,18,22.10
2010,08,15,08,19,22.10
2010,08,15,08,20,22.10
2010,08,15,08,21,22.20
2010,08,15,08,22,22.20
2010,08,15,08,23,22.20
2010,08,15,08,24,22.20
2010,08,15,08,25,22.20
2010,08,15,08,26,22.20
2010,08,15,08,27,22.30
2010,08,15,08,28,22.30
2010,08,15,08,29,22.30
2010,08,15,08,30,22.30
2010,08,15,08,31,22.30
2010,08,15,08,32,22.40
2010,08,15,08,33,22.40
2010,08,15,08,34,22.40
2010,08,15,08,35,22.50
2010,08,15,08,36,22.50
2010,08,15,08,37,22.60
2010,08,15,08,38,22.60
2010,08,15,08,39,22.70
2010,08,15,08,40,22.70
2010,08,15,08,41,22.80
2010,08,15,08,42,22.80
2010,08,15,08,43,22.80
2010,08,15,08,44,22.80
2010,08,15,08,45,22.90
2010,08,15,08,46,22.90
2010,08,15,08,47,22.90
2010,08,15,08,48,23.00
2010,08,15,08,49,23.00
2010,08,15,08,50,23.00
2010,08,15,08,51,23.10
2010,08,15,08,52,23.10
2010,08,15,08,53,23.20
2010,08,15,08,54,23.20
2010,08,15,08,55,23.20
2010,08,15,08,56,23.30
2010,08,15,08,57,23.30
2010,08,15,08,58,23.30
2010,08,15,08,59,23.40
2010,08,15,09,00,23.40
2010,08,15,09,01,23.50
2010,08,15,09,02,23.50
2010,08,15,09,03,23.60
2010,08,15,09,04,23.60
2010,08,15,09,05,23.70
2010,08,15,09,06,23.70
2010,08,15,09,07,23.70
2010,08,15,09,08,23.80
2010,08,15,09,09,23.80
2010,08,15,09,10,23.90
2010,08,15,09,11,23.90
2010,08,15,09,12,23.90
2010,08,15,09,13,24.00
2010,08,15,09,14,24.00
2010,08,15,09,15,24.10
2010,08,15,09,16,24.10
2010,08,15,09,17,24.10
2010,08,15,09,18,24.20
2010,08,15,09,19,24.20
2010,08,15,09,20,24.20
2010,08,15,09,21,24.20
2010,08,15,09,22,24.20
2010,08,15,09,23,24.20
2010,08,15,09,24,24.20
2010,08,15,09,25,24.20
2010,08,15,09,26,24.20
2010,08,15,09,27,24.10
2010,08,15,09,28,24.10
2010,08,15,09,29,24.10
2010,08,15,09,30,24.10
2010,08,15,09,31,24.10
2010,08,15,09,32,24.10
2010,08,15,09,33,24.20
2010,08,15,09,34,24.20
2010,08,15,09,35,24.20
2010,08,15,09,36,24.30
2010,08,15,09,37,24.30
2010,08,15,09,38,24.30
2010,08,15,09,39,24.30
2010,08,15,09,40,24.40
2010,08,15,09,41,24.40
2010,08,15,09,42,24.50
2010,08,15,09,43,24.50
2010,08,15,09,44,24.50
2010,08,15,09,45,24.50
2010,08,15,09,46,24.50
2010,08,15,09,47,24.40
2010,08,15,09,48,24.40
2010,08,15,09,49,24.40
2010,08,15,09,50,24.40
2010,08,15,09,51,24.40
2010,08,15,09,52,24.40
2010,08,15,09,53,24.50
2010,08,15,09,54,24.50
2010,08,15,09,55,24.50
2010,08,15,09,56,24.50
2010,08,15,09,57,24.60
2010,08,15,09,58,24.60
2010,08,15,09,59,24.60
2010,08,15,10,00,24.60
2010,08,15,10,01,24.70
2010,08,15,10,02,24.70
2010,08,15,10,03,24.70
2010,08,15,10,04,24.80
2010,08,15,10,05,24.80
2010,08,15,10,06,24.80
2010,08,15,10,07,24.80
2010,08,15,10,08,24.80
2010,08,15,10,09,24.90
2010,08,15,10,10,24.90
2010,08,15,10,11,24.90
2010,08,15,10,12,24.90
2010,08,15,10,13,24.90
2010,08,15,10,14,24.90
2010,08,15,10,15,24.90
2010,08,15,10,16,24.90
2010,08,15,10,17,24.90
2010,08,15,10,18,24.90
2010,08,15,10,19,24.90
2010,08,15,10,20,24.90
2010,08,15,10,21,24.90
2010,08,15,10,22,24.90
2010,08,15,10,23,24.90
2010,08,15,10,24,24.90
2010,08,15,10,25,25.00
2010,08,15,10,26,25.00
2010,08,15,10,27,25.10
2010,08,15,10,28,25.10
2010,08,15,10,29,25.20
2010,08,15,10,30,25.20
2010,08,15,10,31,25.30
2010,08,15,10,32,25.40
2010,08,15,10,33,25.40
2010,08,15,10,34,25.50
2010,08,15,10,35,25.60
2010,08,15,10,36,25.60
2010,08,15,10,37,25.60
2010,08,15,10,38,25.70
2010,08,15,10,39,25.70
2010,08,15,10,40,25.80
2010,08,15,10,41,25.80
2010,08,15,10,42,25.80
2010,08,15,10,43,25.80
2010,08,15,10,44,25.80
2010,08,15,10,45,25.80
2010,08,15,10,46,25.90
2010,08,15,10,47,25.90
2010,08,15,10,48,26.00
2010,08,15,10,49,26.10
2010,08,15,10,50,26.10
2010,08,15,10,51,26.20
2010,08,15,10,52,26.20
2010,08,15,10,53,26.20
2010,08,15,10,54,26.30
2010,08,15,10,55,26.30
2010,08,15,10,56,26.30
2010,08,15,10,57,26.40
2010,08,15,10,58,26.40
2010,08,15,10,59,26.40
2010,08,15,11,00,26.50
2010,08,15,11,01,26.50
2010,08,15,11,02,26.60
2010,08,15,11,03,26.60
2010,08,15,11,04,26.70
2010,08,15,11,05,26.70
2010,08,15,11,06,26.70
2010,08,15,11,07,26.80
2010,08,15,11,08,26.80
2010,08,15,11,09,26.80
2010,08,15,11,10,26.80
2010,08,15,11,11,26.80
2010,08,15,11,12,26.80
2010,08,15,11,13,26.80
2010,08,15,11,14,26.80
2010,08,15,11,15,26.80
2010,08,15,11,16,26.80
2010,08,15,11,17,26.80
2010,08,15,11,18,26.80
2010,08,15,11,19,26.90
2010,08,15,11,20,26.90
2010,08,15,11,21,27.00
2010,08,15,11,22,27.00
2010,08,15,11,23,27.10
2010,08,15,11,24,27.10
2010,08,15,11,25,27.20
2010,08,15,11,26,27.30
2010,08,15,11,27,27.40
2010,08,15,11,28,27.50
2010,08,15,11,29,27.60
2010,08,15,11,30,27.70
2010,08,15,11,31,27.70
2010,08,15,11,32,27.80
2010,08,15,11,33,27.90
2010,08,15,11,34,27.90
2010,08,15,11,35,27.90
2010,08,15,11,36,28.00
2010,08,15,11,37,28.00
2010,08,15,11,38,28.10
2010,08,15,11,39,28.10
2010,08,15,11,40,28.10
2010,08,15,11,41,28.10
2010,08,15,11,42,28.10
2010,08,15,11,43,28.20
2010,08,15,11,44,28.20
2010,08,15,11,45,28.20
2010,08,15,11,46,28.30
2010,08,15,11,47,28.30
2010,08,15,11,48,28.40
2010,08,15,11,49,28.40
2010,08,15,11,50,28.40
2010,08,15,11,51,28.50
2010,08,15,11,52,28.50
2010,08,15,11,53,28.40
2010,08,15,11,54,28.50
2010,08,15,11,55,28.50
2010,08,15,11,56,28.50
2010,08,15,11,57,28.50
2010,08,15,11,58,28.50
2010,08,15,11,59,28.60
2010,08,15,12,00,28.60
2010,08,15,12,01,28.60
2010,08,15,12,02,28.70
2010,08,15,12,03,28.70
2010,08,15,12,04,28.70
2010,08,15,12,05,28.80
2010,08,15,12,06,28.80
2010,08,15,12,07,28.80
2010,08,15,12,08,28.70
2010,08,15,12,09,28.70
2010,08,15,12,10,28.70
2010,08,15,12,11,28.70
2010,08,15,12,12,28.70
2010,08,15,12,13,28.70
2010,08,15,12,14,28.70
2010,08,15,12,15,28.70
2010,08,15,12,16,28.70
2010,08,15,12,17,28.70
2010,08,15,12,18,28.80
2010,08,15,12,19,28.80
2010,08,15,12,20,28.80
2010,08,15,12,21,28.80
2010,08,15,12,22,28.80
2010,08,15,12,23,28.80
2010,08,15,12,24,28.80
2010,08,15,12,25,28.90
2010,08,15,12,26,28.90
2010,08,15,12,27,28.90
2010,08,15,12,28,28.90
2010,08,15,12,29,28.90
2010,08,15,12,30,28.90
2010,08,15,12,31,28.90
2010,08,15,12,32,29.00
2010,08,15,12,33,29.00
2010,08,15,12,34,29.10
2010,08,15,12,35,29.10
2010,08,15,12,36,29.20
2010,08,15,12,37,29.20
2010,08,15,12,38,29.30
2010,08,15,12,39,29.30
2010,08,15,12,40,29.30
2010,08,15,12,41,29.40
2010,08,15,12,42,29.40
2010,08,15,12,43,29.50
2010,08,15,12,44,29.50
2010,08,15,12,45,29.60
2010,08,15,12,46,29.60
2010,08,15,12,47,29.70
2010,08,15,12,48,29.70
2010,08,15,12,49,29.70
2010,08,15,12,50,29.70
2010,08,15,12,51,29.70
2010,08,15,12,52,29.80
2010,08,15,12,53,29.80
2010,08,15,12,54,29.80
2010,08,15,12,55,29.80
2010,08,15,12,56,29.80
2010,08,15,12,57,29.80
2010,08,15,12,58,29.80
2010,08,15,12,59,29.80
2010,08,15,13,00,29.80
2010,08,15,13,01,29.80
2010,08,15,13,02,29.80
2010,08,15,13,03,29.80
2010,08,15,13,04,29.80
2010,08,15,13,05,29.80
2010,08,15,13,06,29.90
2010,08,15,13,07,29.90
2010,08,15,13,08,30.00
2010,08,15,13,09,30.00
2010,08,15,13,10,29.90
2010,08,15,13,11,29.90
2010,08,15,13,12,30.00
2010,08,15,13,13,30.00
2010,08,15,13,14,30.00
2010,08,15,13,15,30.10
2010,08,15,13,16,30.10
2010,08,15,13,17,30.10
2010,08,15,13,18,30.10
2010,08,15,13,19,30.10
2010,08,15,13,20,30.20
2010,08,15,13,21,30.20
2010,08,15,13,22,30.20
2010,08,15,13,23,30.20
2010,08,15,13,24,30.20
2010,08,15,13,25,30.20
2010,08,15,13,26,30.30
2010,08,15,13,27,30.30
2010,08,15,13,28,30.40
2010,08,15,13,29,30.40
2010,08,15,13,30,30.50
2010,08,15,13,31,30.60
2010,08,15,13,32,30.60
2010,08,15,13,33,30.70
2010,08,15,13,34,30.70
2010,08,15,13,35,30.70
2010,08,15,13,36,30.70
2010,08,15,13,37,30.80
2010,08,15,13,38,30.80
2010,08,15,13,39,30.80
2010,08,15,13,40,30.80
2010,08,15,13,41,30.80
2010,08,15,13,42,30.80
2010,08,15,13,43,30.80
2010,08,15,13,44,30.90
2010,08,15,13,45,30.90
2010,08,15,13,46,31.00
2010,08,15,13,47,31.10
2010,08,15,13,48,31.20
2010,08,15,13,49,31.30
2010,08,15,13,50,31.40
2010,08,15,13,51,31.50
2010,08,15,13,52,31.50
2010,08,15,13,53,31.60
2010,08,15,13,54,31.60
2010,08,15,13,55,31.60
2010,08,15,13,56,31.60
2010,08,15,13,57,31.60
2010,08,15,13,58,31.60
2010,08,15,13,59,31.60
2010,08,15,14,00,31.60
2010,08,15,14,01,31.50
2010,08,15,14,02,31.50
2010,08,15,14,03,31.40
2010,08,15,14,04,31.40
2010,08,15,14,05,31.40
2010,08,15,14,06,31.40
2010,08,15,14,07,31.40
2010,08,15,14,08,31.40
2010,08,15,14,09,31.40
2010,08,15,14,10,31.40
2010,08,15,14,11,31.40
2010,08,15,14,12,31.50
2010,08,15,14,13,31.50
2010,08,15,14,14,31.40
2010,08,15,14,15,31.40
2010,08,15,14,16,31.40
2010,08,15,14,17,31.40
2010,08,15,14,18,31.40
2010,08,15,14,19,31.40
2010,08,15,14,20,31.40
2010,08,15,14,21,31.50
2010,08,15,14,22,31.50
2010,08,15,14,23,31.60
2010,08,15,14,24,31.70
2010,08,15,14,25,31.70
2010,08,15,14,26,31.70
2010,08,15,14,27,31.70
2010,08,15,14,28,31.70
2010,08,15,14,29,31.60
2010,08,15,14,30,31.60
2010,08,15,14,31,31.60
2010,08,15,14,32,31.60
2010,08,15,14,33,31.60
2010,08,15,14,34,31.60
2010,08,15,14,35,31.70
2010,08,15,14,36,31.70
2010,08,15,14,37,31.80
2010,08,15,14,38,31.90
2010,08,15,14,39,31.90
2010,08,15,14,40,31.90
2010,08,15,14,41,32.00
2010,08,15,14,42,32.00
2010,08,15,14,43,32.10
2010,08,15,14,44,32.10
2010,08,15,14,45,32.10
2010,08,15,14,46,32.10
2010,08,15,14,47,32.10
2010,08,15,14,48,32.10
2010,08,15,14,49,32.20
2010,08,15,14,50,32.20
2010,08,15,14,51,32.20
2010,08,15,14,52,32.10
2010,08,15,14,53,32.10
2010,08,15,14,54,32.10
2010,08,15,14,55,32.20
2010,08,15,14,56,32.20
2010,08,15,14,57,32.30
2010,08,15,14,58,32.30
2010,08,15,14,59,32.40
2010,08,15,15,00,32.40
2010,08,15,15,01,32.40
2010,08,15,15,02,32.50
2010,08,15,15,03,32.50
2010,08,15,15,04,32.50
2010,08,15,15,05,32.50
2010,08,15,15,06,32.60
2010,08,15,15,07,32.60
2010,08,15,15,08,32.60
2010,08,15,15,09,32.70
2010,08,15,15,10,32.70
2010,08,15,15,11,32.70
2010,08,15,15,12,32.70
2010,08,15,15,13,32.70
2010,08,15,15,14,32.70
2010,08,15,15,15,32.70
2010,08,15,15,16,32.80
2010,08,15,15,17,32.80
2010,08,15,15,18,32.80
2010,08,15,15,19,32.80
2010,08,15,15,20,32.80
2010,08,15,15,21,32.80
2010,08,15,15,22,32.80
2010,08,15,15,23,32.80
2010,08,15,15,24,32.80
2010,08,15,15,25,32.80
2010,08,15,15,26,32.90
2010,08,15,15,27,32.90
2010,08,15,15,28,33.00
2010,08,15,15,29,33.00
2010,08,15,15,30,32.90
2010,08,15,15,31,32.80
2010,08,15,15,32,32.70
2010,08,15,15,33,32.60
2010,08,15,15,34,32.50
2010,08,15,15,35,32.30
2010,08,15,15,36,32.30
2010,08,15,15,37,32.20
2010,08,15,15,38,32.10
2010,08,15,15,39,32.00
2010,08,15,15,40,31.90
2010,08,15,15,41,31.80
2010,08,15,15,42,31.60
2010,08,15,15,43,31.40
2010,08,15,15,44,31.30
2010,08,15,15,45,31.10
2010,08,15,15,46,31.00
2010,08,15,15,47,30.90
2010,08,15,15,48,30.70
2010,08,15,15,49,30.60
2010,08,15,15,50,30.40
2010,08,15,15,51,30.20
2010,08,15,15,52,30.00
2010,08,15,15,53,29.90
2010,08,15,15,54,29.80
2010,08,15,15,55,29.70
2010,08,15,15,56,29.70
2010,08,15,15,57,29.60
2010,08,15,15,58,29.40
2010,08,15,15,59,29.30
2010,08,15,16,00,29.20
2010,08,15,16,01,29.10
2010,08,15,16,02,29.00
2010,08,15,16,03,28.90
2010,08,15,16,04,28.80
2010,08,15,16,05,28.80
2010,08,15,16,06,28.70
2010,08,15,16,07,28.70
2010,08,15,16,08,28.70
2010,08,15,16,09,28.60
2010,08,15,16,10,28.40
2010,08,15,16,11,28.30
2010,08,15,16,12,28.20
2010,08,15,16,13,28.00
2010,08,15,16,14,27.90
2010,08,15,16,15,27.80
2010,08,15,16,16,27.70
2010,08,15,16,17,27.70
2010,08,15,16,18,27.60
2010,08,15,16,19,27.60
2010,08,15,16,20,27.50
2010,08,15,16,21,27.50
2010,08,15,16,22,27.60
2010,08,15,16,23,27.70
2010,08,15,16,24,27.80
2010,08,15,16,25,27.80
2010,08,15,16,26,27.80
2010,08,15,16,27,27.80
2010,08,15,16,28,27.90
2010,08,15,16,29,27.90
2010,08,15,16,30,28.00
2010,08,15,16,31,28.10
2010,08,15,16,32,28.10
2010,08,15,16,33,28.20
2010,08,15,16,34,28.10
2010,08,15,16,35,28.10
2010,08,15,16,36,28.20
2010,08,15,16,37,28.20
2010,08,15,16,38,28.20
2010,08,15,16,39,28.20
2010,08,15,16,40,28.20
2010,08,15,16,41,28.20
2010,08,15,16,42,28.20
2010,08,15,16,43,28.10
2010,08,15,16,44,28.10
2010,08,15,16,45,28.10
2010,08,15,16,46,28.20
2010,08,15,16,47,28.10
2010,08,15,16,48,28.10
2010,08,15,16,49,28.00
2010,08,15,16,50,28.10
2010,08,15,16,51,28.10
2010,08,15,16,52,28.10
2010,08,15,16,53,28.10
2010,08,15,16,54,28.00
2010,08,15,16,55,28.10
2010,08,15,16,56,28.10
2010,08,15,16,57,28.10
2010,08,15,16,58,28.10
2010,08,15,16,59,28.20
2010,08,15,17,00,28.20
2010,08,15,17,01,28.20
2010,08,15,17,02,28.20
2010,08,15,17,03,28.30
2010,08,15,17,04,28.20
2010,08,15,17,05,28.20
2010,08,15,17,06,28.10
2010,08,15,17,07,28.10
2010,08,15,17,08,28.00
2010,08,15,17,09,27.90
2010,08,15,17,10,27.90
2010,08,15,17,11,27.80
2010,08,15,17,12,27.80
2010,08,15,17,13,27.70
2010,08,15,17,14,27.70
2010,08,15,17,15,27.70
2010,08,15,17,16,27.70
2010,08,15,17,17,27.60
2010,08,15,17,18,27.50
2010,08,15,17,19,27.50